Location: Bittkow
(50.3000°N, 19.0000°E)
Time: 12:43:16
(UTC+00:00)

CZ-2D R/B - Pass Details

Date: 19 September 2020
Orbit: 791 x 846 km, 98.7° (Epoch: 25 October)

Event Time Altitude Azimuth Distance (km) Brightness Sun altitude
Rises 00:14:40 0° 17° (NNE) 3,363 6.3 -34.3°
Reaches altitude 10° 00:17:04 10° 20° (NNE) 2,418 5.4 -34.1°
Enters shadow 00:20:45 43° 40° (NE) 1,136 3.1 -33.8°
